1513303200.21,40538,5.06,71598.5,-10.01,-10.97,-10.97,0,*6A
1513303201.43,40539,5.06,71658.0,-10.01,-11.01,-10.89,0,*6A
1513303202.66,40540,5.06,71634.5,-9.99,-10.89,-10.89,0,*5C
1513303203.95,40541,5.06,71604.5,-9.99,-10.71,-10.67,0,*5A
1513303205.24,40542,5.06,71586.3,-9.99,-10.71,-10.79,0,*56
1513303206.46,40543,5.06,71628.0,-9.99,-10.85,-10.85,0,*5F
1513303207.69,40544,5.06,71632.8,-9.99,-10.85,-10.85,0,*58
1513303208.94,40545,5.06,71644.3,-9.99,-10.79,-10.85,0,*5A
1513303210.17,40546,5.06,71652.0,-9.97,-10.79,-10.85,0,*57
1513303211.38,40547,5.06,71644.8,-9.97,-10.85,-10.93,0,*52
1513303212.59,40548,5.06,71636.5,-9.97,-10.93,-10.93,0,*5A
1513303213.83,40549,5.06,71636.5,-9.97,-10.93,-11.07,0,*57
1513303215.07,40550,5.06,71634.5,-9.97,-11.07,-11.11,0,*54
1513303216.28,40551,5.06,71658.3,-9.97,-11.11,-11.19,0,*5A
1513303217.53,40552,5.06,71644.3,-9.95,-11.11,-11.07,0,*54
1513303218.74,40553,5.06,71634.8,-9.97,-11.11,-11.11,0,*50
1513303219.98,40554,5.06,71632.3,-9.97,-11.11,-11.07,0,*50
1513303221.22,40555,5.06,71660.8,-9.97,-11.07,-10.97,0,*5E
1513303222.49,40556,5.06,71594.0,-9.97,-11.07,-11.07,0,*55
1513303223.71,40557,5.06,71598.3,-9.97,-10.97,-10.97,0,*54
1513303224.92,40558,5.06,71634.5,-9.97,-10.97,-10.85,0,*58
1513303226.15,40559,5.06,71610.5,-9.95,-10.97,-10.93,0,*5C
1513303227.37,40560,5.06,71602.0,-9.97,-10.97,-10.93,0,*54
1513303228.58,40561,5.06,71632.8,-9.97,-10.93,-10.93,0,*51
1513303229.82,40562,5.06,71628.0,-9.95,-10.93,-10.93,0,*50
1513303231.03,40563,5.06,71632.0,-9.97,-10.97,-10.93,0,*57
1513303232.27,40564,5.06,71628.0,-9.95,-10.97,-10.93,0,*52
1513303233.51,40565,5.06,71626.8,-9.95,-10.97,-10.93,0,*53
1513303234.77,40566,5.06,71624.0,-9.95,-11.07,-10.97,0,*5C
1513303236.06,40567,5.06,71636.3,-9.95,-11.07,-11.07,0,*55
1513303237.3,40568,5.06,71638.8,-9.97,-10.97,-11.07,0,*50
1513303238.52,40569,5.06,71636.0,-9.97,-10.97,-10.93,0,*5D
1513303239.74,40570,5.06,71646.3,-9.95,-10.85,-10.85,0,*53
1513303240.95,40571,5.06,71640.8,-9.97,-10.85,-10.93,0,*57
1513303242.18,40572,5.06,71640.3,-9.95,-10.93,-10.93,0,*51
1513303243.39,40573,5.06,71640.5,-9.97,-10.93,-10.85,0,*55
1513303244.59,40574,5.06,71636.0,-9.97,-10.93,-10.85,0,*52
1513303245.83,40575,5.06,71626.0,-9.95,-10.93,-10.93,0,*56
1513303247.06,40576,5.06,71632.0,-9.95,-10.97,-10.85,0,*56
1513303248.28,40577,5.06,71624.5,-9.95,-10.93,-10.85,0,*53
1513303249.5,40578,5.06,71618.0,-9.97,-10.93,-10.93,0,*59
1513303250.73,40579,5.06,71618.8,-9.95,-10.97,-10.93,0,*5E
1513303251.99,40580,5.06,71616.0,-9.95,-11.07,-10.85,0,*57
1513303253.22,40581,5.06,71620.8,-9.95,-10.97,-10.93,0,*59
1513303254.49,40582,5.06,71622.5,-9.95,-11.07,-10.97,0,*56
1513303255.72,40583,5.06,71632.0,-9.91,-11.01,-10.93,0,*51
1513303256.96,40584,5.06,71636.0,-9.91,-10.93,-10.89,0,*57
1513303258.18,40585,5.06,71644.3,-9.95,-10.85,-10.85,0,*59
1513303259.4,40586,5.06,71652.3,-9.95,-10.85,-10.85,0,*5A
1513303260.64,40587,5.06,71640.5,-9.95,-10.93,-10.93,0,*5B
1513303261.87,40588,5.06,71650.3,-9.95,-10.93,-10.93,0,*54
1513303263.11,40589,5.06,71652.3,-9.95,-10.97,-10.93,0,*51
1513303264.34,40590,5.06,71648.8,-9.95,-10.93,-10.93,0,*5D
1513303265.63,40591,5.06,71644.3,-9.91,-10.79,-10.79,0,*58
1513303266.85,40592,5.06,71650.0,-9.95,-10.93,-10.85,0,*58
1513303268.07,40593,5.06,71644.3,-9.97,-10.93,-10.93,0,*5C
1513303269.3,40594,5.06,71648.5,-9.95,-10.93,-10.97,0,*5D
1513303270.53,40595,5.06,71646.8,-9.95,-10.93,-10.85,0,*5F
1513303271.76,40596,5.06,71644.3,-9.95,-10.93,-10.85,0,*5C
1513303273.0,40597,5.06,71626.5,-9.91,-11.01,-10.93,0,*54
1513303274.26,40598,5.06,71630.3,-9.91,-11.15,-11.07,0,*52
1513303275.5,40599,5.06,71634.8,-9.95,-10.97,-10.97,0,*54
1513303276.7,40600,5.06,71640.3,-9.97,-11.19,-11.11,0,*5D
1513303277.91,40601,5.06,71634.5,-9.97,-11.19,-11.19,0,*54
1513303279.16,40602,5.06,71632.5,-9.95,-11.33,-11.23,0,*54
1513303280.43,40603,5.06,71650.8,-9.95,-11.37,-11.33,0,*50
1513303281.71,40604,5.06,71636.0,-9.95,-11.37,-11.33,0,*57
1513303282.94,40605,5.06,71630.3,-9.95,-11.45,-11.45,0,*52
1513303284.18,40606,5.06,71634.5,-9.95,-11.45,-11.45,0,*51
1513303285.46,40607,5.06,71624.0,-9.95,-11.59,-11.51,0,*58
1513303286.72,40608,5.06,71606.5,-9.95,-11.51,-11.45,0,*5A
1513303288.0,40609,5.06,71610.5,-9.95,-11.59,-11.51,0,*56
1513303289.25,40610,5.06,71614.5,-9.95,-11.51,-11.45,0,*53
1513303290.51,40611,5.06,71606.3,-9.95,-11.45,-11.37,0,*52
1513303291.79,40612,5.06,71622.8,-9.95,-11.51,-11.37,0,*54
1513303293.04,40613,5.06,71622.5,-9.95,-11.23,-11.33,0,*54
1513303294.31,40614,5.06,71606.3,-9.95,-11.37,-11.37,0,*52
1513303295.55,40615,5.06,71602.8,-9.97,-11.45,-11.37,0,*54
1513303296.79,40616,5.06,71608.5,-9.97,-11.37,-11.45,0,*57
1513303298.06,40617,5.06,71616.3,-9.95,-11.37,-11.37,0,*51
1513303299.32,40618,5.06,71626.8,-9.97,-11.33,-11.37,0,*58
1513303300.55,40619,5.06,71602.3,-9.95,-11.11,-11.19,0,*57
1513303301.75,40620,5.06,71598.5,-9.97,-11.19,-11.19,0,*57
1513303303.03,40621,5.06,71604.5,-9.95,-11.33,-11.33,0,*54
1513303304.28,40622,5.06,71612.5,-9.97,-11.33,-11.33,0,*55
1513303305.49,40623,5.06,71634.8,-9.97,-11.23,-11.23,0,*54
1513303306.73,40624,5.06,71640.3,-9.97,-11.11,-11.07,0,*54
1513303308.0,40625,5.06,71634.5,-9.97,-11.07,-11.07,0,*52
1513303309.23,40626,5.06,71628.3,-9.99,-11.01,-11.11,0,*5E
1513303310.52,40627,5.06,71626.8,-9.95,-11.07,-11.07,0,*52
1513303311.76,40628,5.06,71612.5,-9.97,-11.07,-11.11,0,*58
1513303312.96,40629,5.06,71608.8,-9.97,-11.19,-11.23,0,*57
1513303314.19,40630,5.06,71612.3,-9.97,-11.23,-11.37,0,*53
1513303315.43,40631,5.06,71620.0,-9.97,-11.23,-11.37,0,*52
1513303316.69,40632,5.06,71624.5,-9.97,-11.33,-11.37,0,*50
1513303317.89,40633,5.06,71624.3,-9.97,-11.11,-11.23,0,*54
1513303319.13,40634,5.06,71620.5,-9.99,-11.15,-11.15,0,*5C
1513303320.36,40635,5.06,71624.0,-9.97,-11.11,-11.07,0,*54
1513303321.59,40636,5.06,71616.8,-9.95,-11.11,-11.19,0,*5A
1513303322.82,40637,5.06,71608.5,-9.95,-11.19,-11.19,0,*53
1513303324.07,40638,5.06,71626.8,-9.97,-11.33,-11.33,0,*5E
1513303325.32,40639,5.06,71624.3,-9.95,-11.23,-11.33,0,*5C
1513303326.53,40640,5.06,71628.8,-9.97,-11.19,-11.11,0,*59
1513303327.73,40641,5.06,71628.0,-9.97,-11.11,-11.11,0,*50
1513303329.0,40642,5.06,71628.0,-9.95,-11.07,-10.97,0,*59
1513303330.23,40643,5.06,71628.3,-9.99,-11.23,-11.23,0,*5C
1513303331.47,40644,5.06,71624.5,-9.99,-11.23,-11.23,0,*5B
1513303332.7,40645,5.06,71624.0,-9.99,-11.23,-11.15,0,*5F
1513303333.96,40646,5.06,71632.5,-9.99,-11.29,-11.23,0,*53
1513303335.22,40647,5.06,71640.5,-9.99,-11.29,-11.23,0,*52
1513303336.46,40648,5.06,71638.8,-9.99,-11.23,-11.15,0,*52
1513303337.69,40649,5.06,71638.3,-9.99,-11.23,-11.15,0,*53
1513303338.92,40650,5.06,71630.3,-9.99,-11.23,-11.15,0,*5B
1513303340.13,40651,5.06,71612.8,-9.97,-11.23,-11.19,0,*58
1513303341.4,40652,5.06,71632.0,-9.99,-11.29,-11.23,0,*56
1513303342.61,40653,5.06,71632.0,-10.01,-11.15,-11.15,0,*64
1513303343.84,40654,5.06,71626.0,-9.99,-11.15,-11.15,0,*5A
1513303345.07,40655,5.06,71632.0,-9.99,-11.15,-11.15,0,*5B
1513303346.29,40656,5.06,71620.0,-10.01,-11.15,-11.15,0,*61
1513303347.55,40657,5.06,71618.8,-9.99,-11.29,-11.15,0,*56
1513303348.78,40658,5.06,71618.8,-9.99,-11.15,-11.23,0,*53
1513303350.02,40659,5.06,71616.5,-9.99,-11.23,-11.23,0,*57
1513303351.28,40660,5.06,71612.5,-9.99,-11.29,-11.23,0,*57
1513303352.54,40661,5.06,71618.8,-9.99,-11.29,-11.23,0,*56
1513303353.8,40662,5.06,71616.0,-9.99,-11.15,-11.37,0,*5F
1513303355.06,40663,5.06,71626.5,-9.99,-11.23,-11.29,0,*54
1513303356.32,40664,5.06,71648.5,-9.99,-11.23,-11.29,0,*53
1513303357.53,40665,5.06,71642.0,-10.01,-11.15,-11.15,0,*61
1513303358.76,40666,5.06,71630.0,-9.99,-11.11,-11.11,0,*5B
1513303359.98,40667,5.06,71638.0,-10.01,-11.23,-11.23,0,*63
1513303361.27,40668,5.06,71636.0,-9.99,-11.29,-11.29,0,*55
1513303362.53,40669,5.06,71646.8,-9.99,-11.29,-11.23,0,*5E
1513303363.75,40670,5.06,71634.5,-10.01,-11.23,-11.23,0,*65
1513303364.96,40671,5.06,71646.3,-10.01,-11.15,-11.23,0,*61
1513303366.22,40672,5.06,71638.3,-9.99,-11.23,-11.29,0,*54
1513303367.43,40673,5.06,71608.0,-10.01,-11.15,-11.15,0,*66
1513303368.67,40674,5.06,71586.8,-9.99,-11.11,-11.01,0,*59
1513303369.88,40675,5.06,71582.0,-10.01,-11.11,-11.15,0,*64
1513303371.12,40676,5.06,71596.3,-9.99,-11.11,-11.01,0,*5B
1513303372.34,40677,5.06,71594.0,-10.01,-11.01,-11.01,0,*62
1513303373.58,40678,5.06,71614.0,-9.99,-11.01,-11.01,0,*54
1513303374.81,40679,5.06,71612.8,-9.99,-11.01,-11.01,0,*55
1513303376.03,40680,5.06,71618.5,-10.01,-11.11,-11.11,0,*6A
1513303377.24,40681,5.06,71624.8,-10.01,-11.15,-11.15,0,*6B
1513303378.47,40682,5.06,71644.3,-9.99,-11.11,-11.11,0,*51
1513303379.69,40683,5.06,71650.8,-10.01,-11.01,-11.01,0,*69
1513303380.92,40684,5.06,71654.8,-9.99,-11.11,-11.11,0,*57
1513303382.14,40685,5.06,71648.3,-10.01,-11.11,-11.11,0,*6F
1513303383.35,40686,5.06,71654.0,-10.01,-11.11,-11.15,0,*68
1513303384.62,40687,5.06,71642.0,-10.01,-11.29,-11.29,0,*6D
1513303385.84,40688,5.06,71676.0,-10.01,-11.23,-11.23,0,*62
1513303387.07,40689,5.06,71688.5,-9.99,-11.15,-11.15,0,*5A
1513303388.29,40690,5.06,71680.3,-10.01,-11.11,-11.15,0,*6F
1513303389.5,40691,5.06,71642.8,-10.01,-11.01,-11.11,0,*6B
1513303390.72,40692,5.06,71654.8,-10.01,-11.01,-11.11,0,*68
1513303391.94,40693,5.06,71668.8,-10.01,-11.15,-11.11,0,*6C
1513303393.15,40694,5.06,71672.3,-10.01,-11.11,-11.11,0,*6F
1513303394.37,40695,5.06,71674.0,-10.01,-11.11,-11.15,0,*6A
1513303395.58,40696,5.06,71668.3,-10.01,-11.11,-11.23,0,*6C
1513303396.79,40697,5.06,71662.8,-10.01,-11.15,-11.23,0,*69
1513303398.08,40698,5.06,71654.3,-9.99,-11.37,-11.29,0,*55
1513303399.35,40699,5.06,71658.8,-10.03,-11.29,-11.41,0,*6E
1513303400.61,40700,5.06,71660.8,-10.01,-11.37,-11.37,0,*63
1513303401.87,40701,5.06,71660.3,-10.01,-11.37,-11.37,0,*62
1513303403.11,40702,5.06,71674.0,-10.01,-11.41,-11.51,0,*60
1513303404.33,40703,5.06,71678.8,-10.01,-11.41,-11.41,0,*60
1513303405.56,40704,5.06,71670.0,-10.01,-11.41,-11.41,0,*67
1513303406.82,40705,5.06,71680.5,-10.01,-11.51,-11.51,0,*66
1513303408.04,40706,5.06,71700.5,-10.01,-11.41,-11.41,0,*65
1513303409.31,40707,5.06,71676.3,-10.01,-11.29,-11.37,0,*6B
1513303410.57,40708,5.06,71664.0,-10.03,-11.41,-11.33,0,*6C
1513303411.84,40709,5.06,71666.0,-10.03,-11.55,-11.45,0,*69
1513303413.13,40710,5.06,71684.8,-10.03,-11.67,-11.55,0,*61
1513303414.42,40711,5.06,71672.3,-10.03,-11.67,-11.67,0,*61
1513303415.7,40712,5.06,71666.3,-10.03,-11.73,-11.77,0,*66
1513303416.97,40713,5.06,71668.3,-10.05,-11.93,-11.85,0,*62
1513303418.26,40714,5.06,71662.5,-10.03,-11.97,-11.89,0,*6B
1513303419.55,40715,5.06,71660.3,-10.03,-11.97,-11.85,0,*66
1513303420.84,40716,5.06,71668.3,-10.03,-11.97,-11.73,0,*6C
1513303422.1,40717,5.06,71664.5,-10.05,-11.89,-11.77,0,*60
1513303423.38,40718,5.06,71656.5,-10.03,-11.81,-11.73,0,*65
1513303424.65,40719,5.06,71642.3,-10.01,-11.73,-11.67,0,*6E
1513303425.93,40720,5.06,71634.5,-10.03,-11.73,-11.59,0,*6B
1513303427.22,40721,5.06,71640.8,-10.03,-11.73,-11.59,0,*6A
1513303428.48,40722,5.06,71632.8,-10.05,-11.85,-11.73,0,*6E
1513303429.74,40723,5.06,71616.3,-10.05,-11.77,-11.73,0,*62
1513303431.0,40724,5.06,71642.8,-10.05,-11.73,-11.67,0,*64
1513303432.29,40725,5.06,71638.8,-10.03,-11.59,-11.59,0,*66
1513303433.58,40726,5.06,71632.3,-10.03,-11.59,-11.59,0,*65
1513303434.84,40727,5.06,71634.8,-10.05,-11.51,-11.51,0,*62
1513303436.11,40728,5.06,71628.5,-10.03,-11.45,-11.55,0,*6A
1513303437.4,40729,5.06,71632.3,-10.03,-11.51,-11.33,0,*6E
1513303438.62,40730,5.06,71630.0,-10.05,-11.45,-11.45,0,*64
1513303439.86,40731,5.06,71638.0,-10.03,-11.41,-11.41,0,*63
1513303441.1,40732,5.06,71624.8,-10.05,-11.37,-11.45,0,*63
1513303442.38,40733,5.06,71648.8,-10.03,-11.33,-11.33,0,*61
1513303443.64,40734,5.06,71636.5,-10.05,-11.33,-11.33,0,*60
1513303444.9,40735,5.06,71630.5,-10.05,-11.33,-11.33,0,*61
1513303446.14,40736,5.06,71632.8,-10.05,-11.45,-11.37,0,*67
1513303447.41,40737,5.06,71654.3,-10.03,-11.55,-11.45,0,*64
1513303448.65,40738,5.06,71630.8,-10.03,-11.41,-11.41,0,*6A
1513303449.89,40739,5.06,71632.5,-10.05,-11.45,-11.51,0,*68
1513303451.14,40740,5.06,71630.5,-10.05,-11.45,-11.51,0,*66
1513303452.41,40741,5.06,71628.5,-10.03,-11.45,-11.51,0,*61
1513303453.65,40742,5.06,71626.3,-10.03,-11.41,-11.41,0,*67
1513303454.92,40743,5.06,71616.5,-10.03,-11.55,-11.45,0,*67
1513303456.18,40744,5.06,71620.8,-10.05,-11.59,-11.59,0,*67
1513303457.44,40745,5.06,71624.0,-10.05,-11.59,-11.59,0,*66
1513303458.71,40746,5.06,71628.3,-10.05,-11.59,-11.59,0,*65
1513303459.97,40747,5.06,71632.5,-10.05,-11.51,-11.51,0,*64
1513303461.23,40748,5.06,71650.3,-10.05,-11.37,-11.51,0,*6B
1513303462.47,40749,5.06,71646.3,-10.05,-11.45,-11.37,0,*6F
1513303463.69,40750,5.06,71660.8,-10.05,-11.45,-11.45,0,*62
1513303464.95,40751,5.06,71670.5,-10.07,-11.37,-11.45,0,*64
1513303466.22,40752,5.06,71664.8,-10.03,-11.33,-11.41,0,*63
1513303467.51,40753,5.06,71660.8,-10.03,-11.33,-11.29,0,*6C
1513303468.75,40754,5.06,71684.8,-10.05,-11.33,-11.23,0,*67
1513303469.99,40755,5.06,71676.8,-10.05,-11.33,-11.23,0,*66
1513303471.2,40756,5.06,71666.0,-10.05,-11.23,-11.23,0,*64
1513303472.41,40757,5.06,71652.8,-10.05,-11.19,-11.19,0,*65
1513303473.62,40758,5.06,71650.3,-10.05,-11.23,-11.11,0,*6B
1513303474.88,40759,5.06,71622.8,-10.05,-11.37,-11.37,0,*6B
1513303476.1,40760,5.06,71612.8,-10.05,-11.45,-11.45,0,*61
1513303477.36,40761,5.06,71614.5,-10.05,-11.37,-11.37,0,*60
1513303478.58,40762,5.06,71620.5,-10.05,-11.45,-11.45,0,*63
1513303479.8,40763,5.06,71624.3,-10.05,-11.45,-11.45,0,*62
1513303481.04,40764,5.06,71628.3,-10.03,-11.41,-11.41,0,*63
1513303482.3,40765,5.06,71622.3,-10.05,-11.51,-11.37,0,*64
1513303483.54,40766,5.06,71624.8,-10.05,-11.51,-11.45,0,*62
1513303484.8,40767,5.06,71630.5,-10.05,-11.51,-11.51,0,*66
1513303486.03,40768,5.06,71630.3,-10.05,-11.51,-11.45,0,*6C
1513303487.25,40769,5.06,71602.0,-10.05,-11.45,-11.45,0,*68
1513303488.54,40770,5.06,71608.8,-10.07,-11.59,-11.51,0,*6A
1513303489.81,40771,5.06,71638.3,-10.05,-11.63,-11.63,0,*61
1513303491.09,40772,5.06,71622.0,-10.05,-11.63,-11.63,0,*62
1513303492.38,40773,5.06,71624.0,-10.07,-11.73,-11.63,0,*60
1513303493.67,40774,5.06,71638.0,-10.07,-11.63,-11.59,0,*6F
1513303494.93,40775,5.06,71646.8,-10.07,-11.51,-11.45,0,*62
1513303496.21,40776,5.06,71652.5,-10.07,-11.37,-11.33,0,*60
1513303497.5,40777,5.06,71652.0,-10.07,-11.37,-11.37,0,*65
1513303498.78,40778,5.06,71668.5,-10.07,-11.37,-11.37,0,*6A
1513303500.03,40779,5.06,71662.8,-10.07,-11.45,-11.45,0,*6B
1513303501.3,40780,5.06,71634.5,-10.07,-11.45,-11.51,0,*68
1513303502.58,40781,5.06,71620.8,-10.07,-11.37,-11.33,0,*68
1513303503.79,40782,5.06,71616.3,-10.05,-11.23,-11.23,0,*6D
1513303505.05,40783,5.06,71622.3,-10.05,-11.37,-11.33,0,*68
1513303506.3,40784,5.06,71622.8,-10.05,-11.33,-11.33,0,*6B
1513303507.54,40785,5.06,71620.3,-10.05,-11.33,-11.23,0,*6B
1513303508.76,40786,5.06,71616.8,-10.05,-11.23,-11.19,0,*60
1513303509.99,40787,5.06,71628.5,-10.05,-11.33,-11.23,0,*69
1513303511.23,40788,5.06,71632.8,-10.05,-11.23,-11.33,0,*66
1513303512.44,40789,5.06,71638.8,-10.05,-11.23,-11.23,0,*66
1513303513.68,40790,5.06,71634.3,-10.07,-11.23,-11.19,0,*65
1513303514.92,40791,5.06,71632.8,-10.07,-11.23,-11.23,0,*6D
1513303516.15,40792,5.06,71626.3,-10.07,-11.19,-11.19,0,*6E
1513303517.39,40793,5.06,71630.0,-10.07,-11.19,-11.11,0,*67
1513303518.62,40794,5.06,71636.5,-10.03,-11.15,-11.15,0,*6C
1513303519.86,40795,5.06,71644.0,-10.05,-11.33,-11.23,0,*6A
1513303521.1,40796,5.06,71670.0,-10.05,-11.33,-11.23,0,*69
1513303522.34,40797,5.06,71656.0,-10.05,-11.33,-11.19,0,*61
1513303523.55,40798,5.06,71660.5,-10.05,-11.23,-11.19,0,*6F
1513303524.77,40799,5.06,71678.5,-10.05,-11.23,-11.23,0,*67
1513303526.02,40800,5.06,71682.5,-10.05,-11.33,-11.33,0,*68
1513303527.28,40801,5.06,71670.8,-10.05,-11.33,-11.37,0,*6D
1513303528.49,40802,5.06,71674.8,-10.05,-11.19,-11.23,0,*63
1513303529.73,40803,5.06,71660.8,-10.05,-11.33,-11.23,0,*6A
1513303531.02,40804,5.06,71656.3,-10.03,-11.29,-11.33,0,*61
1513303532.25,40805,5.06,71658.3,-10.05,-11.19,-11.33,0,*65
1513303533.46,40806,5.06,71620.8,-10.05,-11.23,-11.23,0,*6E
1513303534.69,40807,5.06,71630.0,-10.05,-11.23,-11.33,0,*6E
1513303535.95,40808,5.06,71628.8,-10.05,-11.33,-11.33,0,*60
1513303537.17,40809,5.06,71630.0,-10.05,-11.23,-11.23,0,*61
1513303538.38,40810,5.06,71612.5,-10.05,-11.23,-11.23,0,*69
1513303539.62,40811,5.06,71620.8,-10.05,-11.33,-11.23,0,*69
1513303540.86,40812,5.06,71616.8,-10.05,-11.33,-11.23,0,*6A
1513303542.09,40813,5.06,71630.0,-10.05,-11.33,-11.23,0,*6B
1513303543.33,40814,5.06,71674.0,-10.05,-11.23,-11.33,0,*6C
1513303544.57,40815,5.06,71664.8,-10.07,-11.23,-11.19,0,*67
1513303545.81,40816,5.06,71608.0,-10.07,-11.23,-11.19,0,*64
1513303547.04,40817,5.06,71606.0,-10.05,-11.41,-11.33,0,*6B
1513303548.28,40818,5.06,71618.3,-10.05,-11.45,-11.37,0,*64
1513303549.52,40819,5.06,71644.5,-10.05,-11.37,-11.23,0,*65
1513303550.76,40820,5.06,71646.0,-10.05,-11.37,-11.19,0,*66
1513303552.02,40821,5.06,71632.8,-10.07,-11.33,-11.19,0,*61
1513303553.26,40822,5.06,71626.3,-10.07,-11.23,-11.19,0,*63
1513303554.52,40823,5.06,71632.5,-10.07,-11.33,-11.23,0,*6A
1513303555.76,40824,5.06,71644.5,-10.07,-11.23,-11.19,0,*65
1513303557.02,40825,5.06,71620.0,-10.07,-11.23,-11.33,0,*6C
1513303558.3,40826,5.06,71616.0,-10.07,-11.33,-11.33,0,*6E
1513303559.52,40827,5.0,71604.0,-10.05,-11.45,-11.45,0,*6D
1513303560.79,40828,5.06,71600.8,-10.07,-11.37,-11.45,0,*65
1513303562.07,40829,5.06,71618.8,-10.07,-11.33,-11.37,0,*65
1513303563.36,40830,5.06,71658.8,-10.07,-11.33,-11.33,0,*69
1513303564.59,40831,5.06,71646.3,-10.07,-11.19,-11.23,0,*61
1513303565.83,40832,5.06,71650.3,-10.07,-11.11,-11.11,0,*6B
1513303567.1,40833,5.06,71638.8,-10.07,-11.07,-10.97,0,*62
1513303568.34,40834,5.06,71632.5,-10.07,-11.11,-11.19,0,*65
1513303569.62,40835,5.06,71640.0,-10.07,-11.33,-11.33,0,*6C
1513303570.91,40836,5.06,71636.0,-10.07,-11.51,-11.51,0,*6F
1513303572.2,40837,5.06,71628.3,-10.07,-11.59,-11.59,0,*6E
1513303573.47,40838,5.06,71620.8,-10.09,-11.59,-11.59,0,*6F
1513303574.76,40839,5.06,71636.0,-10.07,-11.63,-11.63,0,*60
1513303576.04,40840,5.06,71630.3,-10.09,-11.63,-11.63,0,*60
1513303577.33,40841,5.06,71640.5,-10.07,-11.51,-11.59,0,*67
1513303578.56,40842,5.06,71622.3,-10.07,-11.19,-11.23,0,*65
1513303579.82,40843,5.06,71624.0,-10.07,-11.23,-11.33,0,*6C
1513303581.09,40844,5.06,71614.3,-10.09,-11.51,-11.59,0,*6C
1513303582.36,40845,5.06,71618.0,-10.09,-11.63,-11.63,0,*65
1513303583.63,40846,5.06,71608.3,-10.09,-11.73,-11.63,0,*67
1513303584.9,40847,5.06,71642.5,-10.09,-11.63,-11.59,0,*6E
1513303586.19,40848,5.06,71656.8,-10.07,-11.51,-11.37,0,*66
1513303587.42,40849,5.06,71642.0,-10.09,-11.45,-11.45,0,*69
1513303588.66,40850,5.06,71628.5,-10.09,-11.45,-11.51,0,*64
1513303589.94,40851,5.06,71640.8,-10.09,-11.59,-11.63,0,*69
1513303591.21,40852,5.06,71634.0,-10.09,-11.59,-11.59,0,*63
1513303592.49,40853,5.06,71628.0,-10.09,-11.63,-11.63,0,*62
1513303593.78,40854,5.06,71638.5,-10.07,-11.63,-11.63,0,*6B
1513303595.06,40855,5.06,71648.0,-10.09,-11.63,-11.63,0,*64
1513303596.33,40856,5.06,71646.3,-10.09,-11.73,-11.63,0,*66
1513303597.6,40857,5.06,71654.8,-10.09,-11.59,-11.59,0,*66
1513303598.89,40858,5.06,71636.0,-10.13,-11.67,-11.67,0,*62
1513303600.18,40859,5.06,71646.3,-10.13,-11.77,-11.77,0,*63
1513303601.44,40860,5.06,71644.0,-10.09,-11.51,-11.51,0,*62
1513303602.71,40861,5.06,71652.3,-10.13,-11.41,-11.51,0,*69
1513303604.0,40862,5.06,71640.3,-10.13,-11.63,-11.63,0,*6B
1513303605.29,40863,5.06,71642.5,-10.13,-11.77,-11.77,0,*6A
1513303606.58,40864,5.06,71644.0,-10.13,-11.67,-11.67,0,*6D
1513303607.87,40865,5.06,71642.5,-10.13,-11.67,-11.55,0,*6D
1513303609.16,40866,5.06,71638.3,-10.13,-11.63,-11.77,0,*6A
1513303610.41,40867,5.06,71638.3,-10.15,-11.81,-11.81,0,*68
1513303611.67,40868,5.06,71628.0,-10.15,-11.81,-11.85,0,*63
1513303612.95,40869,5.06,71622.0,-10.13,-11.77,-11.81,0,*69
1513303614.2,40870,5.06,71616.8,-10.15,-11.81,-11.81,0,*6E
1513303615.49,40871,5.06,71602.8,-10.13,-11.77,-11.77,0,*69
1513303616.78,40872,5.06,71630.8,-10.13,-11.63,-11.63,0,*6A
1513303618.07,40873,5.06,71630.5,-10.13,-11.77,-11.77,0,*6B
1513303619.36,40874,5.06,71650.8,-10.13,-11.67,-11.77,0,*6D
1513303620.64,40875,5.06,71616.5,-10.13,-11.77,-11.77,0,*6D
1513303621.93,40876,5.06,71620.5,-10.13,-11.67,-11.77,0,*6F
1513303623.19,40877,5.06,71630.3,-10.15,-11.59,-11.67,0,*64
1513303624.48,40878,5.06,71652.8,-10.13,-11.55,-11.55,0,*60
1513303625.73,40879,5.06,71644.3,-10.13,-11.41,-11.41,0,*61
1513303626.97,40880,5.06,71616.5,-10.13,-11.41,-11.41,0,*67
1513303628.24,40881,5.06,71620.5,-10.13,-11.51,-11.41,0,*67
1513303629.48,40882,5.06,71632.3,-10.13,-11.41,-11.41,0,*65
1513303630.74,40883,5.06,71624.5,-10.13,-11.51,-11.41,0,*65
1513303632.01,40884,5.06,71644.0,-10.13,-11.51,-11.41,0,*62
1513303633.3,40885,5.06,71638.8,-10.13,-11.29,-11.37,0,*6D
1513303634.59,40886,5.06,71624.5,-10.13,-11.29,-11.29,0,*61
1513303635.88,40887,5.06,71608.0,-10.13,-11.29,-11.37,0,*6F
1513303637.18,40888,5.06,71638.5,-10.13,-11.29,-11.29,0,*6F
1513303638.45,40889,5.06,71656.0,-10.13,-11.23,-11.29,0,*64
1513303639.7,40890,5.06,71642.3,-10.15,-11.29,-11.33,0,*6B
1513303640.97,40891,5.06,71650.0,-10.13,-11.23,-11.37,0,*62
1513303642.23,40892,5.06,71652.8,-10.13,-11.23,-11.29,0,*6E
1513303643.5,40893,5.06,71646.5,-10.13,-11.37,-11.41,0,*64
1513303644.79,40894,5.06,71644.8,-10.13,-11.29,-11.37,0,*6D
1513303646.03,40895,5.06,71656.5,-10.13,-11.41,-11.41,0,*63
1513303647.32,40896,5.06,71656.8,-10.13,-11.37,-11.37,0,*60
1513303648.6,40897,5.06,71658.8,-10.13,-11.37,-11.37,0,*61
1513303649.87,40898,5.0,71672.5,-10.13,-11.23,-11.29,0,*64
1513303651.11,40899,5.06,71662.3,-10.13,-11.23,-11.23,0,*6F
1513303652.4,40900,5.06,71656.8,-10.13,-11.37,-11.29,0,*61
1513303653.61,40901,5.06,71656.8,-10.15,-11.41,-11.45,0,*6D
1513303654.9,40902,5.06,71660.0,-10.13,-11.37,-11.29,0,*63
1513303656.13,40903,5.06,71658.5,-10.13,-11.11,-11.15,0,*69
1513303657.35,40904,5.06,71644.3,-10.09,-11.19,-11.19,0,*61
1513303658.56,40905,5.06,71648.3,-10.09,-11.11,-11.11,0,*60
1513303659.8,40906,5.06,71686.5,-10.13,-11.15,-11.23,0,*6D
1513303661.03,40907,5.06,71658.5,-10.09,-10.97,-10.97,0,*62
1513303662.27,40908,5.06,71656.5,-10.13,-11.23,-11.15,0,*63
1513303663.51,40909,5.06,71662.5,-10.13,-11.23,-11.23,0,*67
1513303664.76,40910,5.06,71652.8,-10.09,-11.11,-11.07,0,*63
1513303665.99,40911,5.06,71658.3,-10.13,-11.11,-11.11,0,*6E
1513303667.23,40912,5.0,71662.5,-10.13,-11.01,-11.11,0,*6C
1513303668.47,40913,5.06,71674.0,-10.13,-11.11,-11.15,0,*68
1513303669.71,40914,5.06,71678.5,-10.13,-11.11,-11.01,0,*6A
1513303670.95,40915,5.06,71668.3,-10.13,-11.15,-11.11,0,*6E
1513303672.16,40916,5.06,71644.5,-10.09,-11.11,-11.11,0,*62
1513303673.37,40917,5.06,71650.8,-10.15,-11.15,-11.15,0,*6E
1513303674.61,40918,5.06,71654.0,-10.15,-11.15,-11.07,0,*62
1513303675.85,40919,5.06,71658.5,-10.13,-11.15,-11.01,0,*63
1513303677.09,40920,5.06,71652.8,-10.13,-11.23,-11.11,0,*6D
1513303678.3,40921,5.0,71658.5,-10.09,-11.19,-11.11,0,*6E
1513303679.52,40922,5.06,71644.0,-10.09,-11.23,-11.19,0,*6C
1513303680.76,40923,5.06,71636.0,-10.07,-11.23,-11.11,0,*6B
1513303682.0,40924,5.06,71658.0,-10.09,-11.33,-11.11,0,*63
1513303683.27,40925,5.06,71650.8,-10.13,-11.37,-11.23,0,*6C
1513303684.48,40926,5.06,71652.3,-10.09,-11.23,-11.19,0,*68
1513303685.7,40927,5.06,71664.8,-10.09,-11.23,-11.11,0,*61
1513303686.92,40928,5.06,71672.0,-10.09,-11.23,-11.11,0,*6E
1513303688.19,40929,5.06,71668.8,-10.13,-11.29,-11.15,0,*6A
1513303689.43,40930,5.06,71670.3,-10.07,-11.23,-11.19,0,*61
1513303690.67,40931,5.06,71674.8,-10.13,-11.15,-11.15,0,*6C
1513303691.92,40932,5.06,71674.8,-10.09,-10.97,-11.07,0,*6C
1513303693.14,40933,5.06,71662.0,-10.09,-11.11,-11.11,0,*65
1513303694.38,40934,5.06,71664.5,-10.13,-11.23,-11.23,0,*69
1513303695.62,40935,5.06,71666.0,-10.13,-11.23,-11.23,0,*68
1513303696.85,40936,5.06,71660.5,-10.13,-11.15,-11.23,0,*6E
1513303698.09,40937,5.06,71650.0,-10.13,-11.23,-11.23,0,*6A
1513303699.38,40938,5.06,71644.5,-10.13,-11.29,-11.33,0,*6E
1513303700.66,40939,5.06,71640.3,-10.13,-11.37,-11.37,0,*64
1513303701.9,40940,5.0,71702.5,-10.15,-11.45,-11.33,0,*6D